FENGYUN 1C DEB, 30750

Orbit data source: Space-Track

FENGYUN 1C DEB, 30750 is space debris in SSO originally from a launch on Mon, 10 May 1999 UTC launched from the Taiyaun Space Center, China (TSC). Fengyun 1C debris stems from the Chinese weather satellite Fengyun-1C, which was intentionally destroyed by a Chinese anti-satellite missile in 2007. This event dramatically increased the amount of space debris, with thousands of trackable fragments posing hazards to satellites and human spaceflight. The Fengyun 1C debris cloud has become a focal point in discussions about space sustainability and the need for international regulations to prevent the creation of new debris.

Loading next visibility...
Identifier
30750, 1999-025ATL
Orbit
SSO
Country
Flag of CNCN / PRC
Related business
Manufacturer
Unknown
Mission
Spacecraft
Bus & Motor
Unknown
Mass
Unknown
Launch date (UTC)
1999-05-10 (27 years ago)
Launch vehicle
Unknown
Launch site
Taiyaun Space Center, China (TSC)
Object type
Payload
Rocket body
Debris
Shape & HBR
Unknown shape, 0.1 m
Radar Cross Section
Medium (>0.1 m² and <1 m²)

Expand to show TLE details & history
Last TLE update: 14 hours ago

TLE from 14 hours ago
0 FENGYUN 1C DEB
1 30750U 99025ATL 26208.17782457  .00003937  00000-0  15165-2 0  9991
2 30750  98.9108 292.9275 0041105 157.0452 233.3206 14.30420356   156
Epoch: 2026-07-27T04:16Z
TLE epoch observation values (Epoch: 2026-07-27T04:16:04.042Z)
Latitude
29.64135°
Longitude
-81.04591°
Altitude
811.705 km
Speed
7.441 km/s
True Right ascension
19h 11m 20s
True Declination
29° 29' 42"
Sunlit
Object was in full shadow at epoch
Visualization orbit readout
Latitude
Unknown
Longitude
Unknown
Altitude
Unknown
Speed
Unknown
Apparent Right ascension
Unknown
Apparent Declination
Unknown
Sunlit
N/A
Visualization observer readout
Local Sidereal Time
07:12:31
Azimuth
Unknown
Elevation
Unknown
Doppler factor
Unknown
Orbital elements
Apogee altitude
816.935 km
Perigee altitude
758.026 km
Semi-major axis
7,165.617 km
Eccentricity
0.00411
Inclination
98.9108°
RAAN
292.9275°
Arg. of periapsis
157.0452°
True anomaly
232.944°
Mean anomaly
233.3206°
Eccentric anomaly
233.13218°
Mean motion
3.57818 °/min
Orbital period
100.61 mins
BSTAR
0.0015165
Loading maneuver chart data...
Computing Atmospheric mass density...

Documentation

Showing up to 5 results
|